Wind_Speed
20 20 19 19 19 19 18 18 19 19 19 19 19 20 20 19 18 19 19 18 19 18 18 18 19 19 19 19 20 20 20 21 21 22 22 22 22 21
21 20 20 20 20 20 19 19 19 19 19 19 19 19 19 19 18 18 19 19 19 19 20 19 19 20 20 21 21 21 21 21 21 22 22 22 22 22
22 21 21 21 21 21 20 20 19 20 20 19 19 19 19 19 19 19 20 20 20 20 20 21 20 20 20 21 21 22 22 22 22 22 22 22 22 23
21 21 21 21 22 22 21 20 20 20 20 20 20 20 19 19 20 20 21 21 21 21 21 21 21 21 21 22 22 22 22 22 22 22 22 22 22 22
22 21 21 21 21 21 21 20 20 20 20 20 20 20 21 21 21 21 22 22 22 23 21 21 21 21 22 22 23 22 22 22 22 23 22 22 21 21
23 22 21 21 20 20 20 20 19 20 20 20 20 21 22 22 22 22 22 22 22 22 22 21 21 21 21 21 22 22 22 22 22 22 22 22 22 22
24 23 22 21 21 21 21 20 20 21 21 22 22 22 22 22 22 22 23 23 22 21 21 21 22 22 21 21 21 22 22 22 22 22 22 23 23 23
25 24 23 23 22 22 22 21 22 22 22 23 23 23 23 23 23 23 23 22 22 21 21 20 21 21 22 22 21 21 22 22 22 22 22 22 23 24
27 25 24 24 23 23 23 23 23 23 23 23 23 24 24 23 23 23 23 22 21 21 21 21 22 22 22 22 22 22 22 22 22 22 22 23 23 24
28 27 26 25 25 25 24 24 24 24 24 24 24 24 24 24 24 24 23 23 22 22 22 22 22 23 23 22 22 22 22 22 23 23 24 24 24 24
30 29 28 27 26 25 25 25 25 25 25 25 25 25 25 25 25 24 23 22 22 22 22 22 22 23 23 22 22 23 23 23 23 24 24 24 24 25
30 30 29 29 28 27 26 26 26 25 25 25 25 25 24 24 24 24 23 23 23 23 23 23 23 23 23 23 23 23 23 23 22 23 23 23 24 25
30 30 30 30 29 29 28 27 27 26 26 26 26 25 24 23 23 24 24 24 24 24 23 23 23 23 23 23 23 23 22 22 23 23 23 22 22 23
30 30 30 30 30 29 28 28 28 27 27 26 26 25 24 24 24 24 24 24 25 24 24 24 24 23 23 23 22 22 22 23 23 23 22 22 23 23
29 30 29 29 29 29 28 27 28 28 28 27 26 25 24 24 24 24 24 24 24 24 24 24 24 23 23 22 22 22 22 22 22 22 22 23 23 23
29 30 30 30 29 28 27 27 27 27 27 26 26 25 25 24 24 24 24 24 23 23 23 22 22 21 21 21 21 21 21 21 22 22 22 23 23 23
29 30 30 30 29 28 28 27 27 27 26 26 26 25 25 25 25 25 25 24 23 22 22 21 21 21 21 21 21 21 21 21 22 21 21 22 22 22
29 29 30 30 29 29 28 28 27 27 27 26 25 25 25 25 25 26 26 25 24 23 23 22 22 22 21 21 22 22 22 22 22 22 22 22 22 22
27 27 28 29 29 28 28 28 27 27 26 26 26 25 25 25 25 25 25 24 24 23 23 22 22 22 22 22 22 22 22 22 22 22 22 22 22 22
27 27 28 29 29 29 29 28 27 27 27 26 26 25 25 25 25 24 25 24 23 23 23 23 22 23 23 23 23 22 22 21 22 22 22 22 22 22
26 26 27 28 28 29 29 29 28 26 26 26 26 25 25 25 24 24 25 24 24 23 23 23 23 24 24 23 22 21 21 22 22 23 23 23 23 23
26 27 27 28 28 29 29 28 27 27 27 26 26 25 25 25 25 25 25 25 25 24 23 24 25 24 24 23 23 22 22 22 23 23 24 24 25 25
26 26 27 27 26 26 26 26 26 26 26 26 26 26 26 26 26 26 26 25 25 25 24 24 24 24 24 24 24 23 23 23 24 24 24 25 26 26
Wind_Direction
272 272 273 273 274 277 276 275 275 276 275 277 279 280 278 280 278 275 273 274 275 276 278 279 278 276 273 272 270 270 270 270 271 271 269 266 265 265
271 273 273 273 272 274 271 273 273 275 276 276 279 279 278 277 279 278 275 274 276 276 277 277 278 276 273 273 272 271 271 271 272 271 271 268 265 264
270 272 272 272 273 273 270 272 273 274 273 274 276 278 279 279 278 278 277 275 275 276 277 277 277 276 274 274 272 271 271 271 272 272 271 269 266 265
269 270 271 271 272 271 270 271 272 273 273 274 275 278 280 280 279 279 279 278 278 278 277 277 277 276 275 273 272 272 271 270 272 273 272 271 269 268
267 269 269 269 272 270 270 271 271 271 275 276 275 278 280 281 281 281 281 281 282 279 277 278 277 276 274 274 273 273 273 272 273 274 273 271 268 268
265 267 266 266 269 268 268 270 271 271 272 274 278 280 280 282 282 281 281 282 283 282 281 279 277 279 278 277 275 274 274 274 274 273 272 271 267 267
262 263 263 264 264 266 267 269 271 271 272 273 276 279 281 283 282 282 281 281 282 282 282 281 280 279 279 279 277 275 274 273 273 272 272 269 266 265
259 260 262 265 264 264 268 270 273 273 274 275 276 278 281 281 279 281 281 281 281 281 280 280 279 278 277 277 277 277 275 274 273 273 272 270 268 267
259 259 262 264 263 264 267 271 273 274 274 275 277 277 278 279 279 279 280 281 281 280 279 278 279 279 279 279 279 278 277 276 274 273 273 272 271 270
258 258 259 261 263 264 266 269 271 274 274 275 278 279 279 278 278 279 279 279 279 279 278 278 280 280 278 279 278 277 276 276 274 274 274 273 272 272
257 257 258 260 262 262 264 267 270 273 275 275 276 279 280 277 276 277 277 278 280 281 280 280 281 281 279 279 279 278 277 275 274 274 274 273 273 273
255 256 257 258 260 261 263 266 268 271 273 274 276 277 279 277 275 275 275 276 279 281 281 280 281 282 279 277 278 278 276 274 274 274 274 275 275 275
252 254 255 256 259 261 262 265 266 268 270 272 274 275 276 277 277 275 275 277 279 280 280 279 280 280 280 279 279 277 274 275 276 276 276 276 277 277
252 252 253 254 257 260 262 263 264 266 268 271 273 275 275 276 277 277 277 278 279 280 280 279 280 279 278 279 279 278 276 274 274 276 277 277 278 278
252 251 252 252 254 259 261 263 263 264 267 269 272 273 273 275 276 277 277 278 279 281 281 281 280 278 278 278 279 278 278 277 276 276 277 277 278 278
253 253 254 254 254 256 258 260 262 264 266 268 270 271 272 273 274 274 276 277 279 280 280 281 280 279 280 280 280 279 279 278 276 276 277 277 277 276
254 254 254 254 255 255 257 259 262 263 265 267 269 269 270 271 273 274 275 276 277 278 278 279 280 280 279 280 280 280 281 279 278 277 276 276 277 276
256 255 254 253 254 255 256 258 260 261 263 266 268 269 270 271 272 272 273 274 276 277 277 278 278 278 279 278 278 279 279 280 279 278 278 278 278 278
255 254 255 255 254 254 255 257 258 261 263 265 266 269 270 271 271 271 272 274 276 276 276 276 277 276 277 278 278 277 278 279 279 279 278 278 278 278
256 255 255 256 256 255 254 255 257 259 261 263 265 268 269 268 269 270 271 275 274 273 273 274 275 275 277 277 277 277 278 278 279 279 278 278 278 278
257 256 255 255 255 255 254 255 257 258 260 261 264 266 266 266 266 268 270 273 273 272 271 273 273 274 276 277 276 275 276 277 278 279 279 279 279 281
257 256 256 256 256 256 256 256 258 259 259 261 264 266 267 265 265 269 271 271 271 271 272 273 274 274 274 276 276 273 275 276 276 278 279 279 281 282
257 256 257 257 258 257 256 257 258 259 259 261 264 266 266 266 267 270 271 271 271 272 273 273 274 274 274 273 272 272 274 276 278 279 279 279 280 282
Height
5832 5832 5832 5832 5831 5831 5830 5829 5829 5828 5827 5826 5825 5824 5823 5822 5821 5820 5820 5820 5820 5819 5818 5818 5817 5816 5816 5815 5815 5814 5814 5814 5814 5813 5813 5813 5813 5813
5826 5826 5826 5826 5826 5825 5825 5824 5823 5823 5822 5821 5820 5819 5818 5817 5816 5815 5815 5815 5814 5814 5813 5812 5811 5811 5810 5810 5809 5809 5808 5808 5807 5807 5807 5807 5807 5807
5820 5820 5820 5820 5820 5819 5819 5818 5818 5817 5816 5816 5815 5814 5813 5812 5811 5810 5810 5809 5808 5808 5807 5806 5805 5805 5804 5804 5803 5802 5802 5801 5801 5800 5800 5800 5801 5801
5813 5813 5814 5814 5814 5813 5813 5812 5812 5811 5811 5810 5810 5809 5808 5807 5806 5805 5804 5804 5803 5802 5801 5800 5799 5799 5798 5797 5797 5796 5795 5795 5794 5794 5794 5794 5794 5795
5807 5807 5807 5808 5807 5807 5807 5806 5806 5805 5805 5804 5804 5803 5802 5802 5801 5800 5799 5798 5797 5796 5795 5794 5794 5793 5792 5791 5790 5789 5789 5788 5788 5788 5788 5788 5788 5788
5800 5801 5801 5801 5801 5801 5801 5800 5800 5800 5800 5799 5799 5798 5797 5796 5795 5794 5793 5792 5791 5790 5789 5788 5788 5787 5786 5785 5784 5783 5783 5782 5782 5782 5781 5781 5782 5782
5793 5794 5794 5795 5795 5795 5795 5795 5794 5794 5794 5793 5793 5792 5791 5790 5789 5788 5787 5786 5785 5784 5783 5782 5781 5780 5779 5779 5778 5777 5776 5776 5776 5775 5775 5775 5776 5776
5786 5787 5788 5788 5788 5788 5788 5788 5788 5788 5787 5787 5786 5786 5785 5784 5783 5782 5781 5780 5780 5779 5777 5776 5775 5774 5773 5772 5771 5771 5770 5770 5769 5769 5769 5769 5769 5769
5779 5780 5780 5781 5782 5782 5782 5782 5781 5781 5781 5780 5780 5779 5778 5777 5777 5776 5775 5774 5773 5772 5771 5771 5769 5768 5767 5766 5765 5765 5764 5763 5763 5763 5763 5763 5763 5763
5771 5772 5773 5774 5774 5775 5775 5775 5775 5774 5774 5773 5773 5772 5771 5770 5769 5769 5768 5767 5767 5766 5765 5764 5763 5761 5760 5759 5759 5758 5758 5757 5757 5757 5756 5756 5756 5756
5762 5763 5764 5766 5767 5767 5768 5768 5767 5767 5767 5766 5765 5764 5763 5763 5762 5762 5761 5761 5760 5759 5758 5757 5756 5754 5754 5753 5752 5751 5751 5751 5750 5750 5750 5749 5749 5749
5753 5754 5756 5757 5758 5759 5760 5760 5760 5760 5759 5759 5758 5758 5757 5755 5755 5755 5754 5754 5753 5753 5751 5750 5749 5748 5747 5746 5745 5744 5744 5744 5743 5743 5743 5742 5742 5741
5744 5745 5747 5748 5749 5750 5751 5752 5752 5752 5751 5751 5751 5750 5749 5749 5748 5747 5747 5747 5746 5745 5744 5743 5742 5741 5740 5739 5738 5737 5737 5737 5736 5736 5736 5735 5735 5734
5734 5736 5738 5739 5740 5741 5742 5743 5743 5743 5743 5743 5743 5743 5742 5742 5741 5741 5740 5739 5738 5738 5737 5736 5734 5733 5733 5732 5731 5731 5730 5730 5729 5729 5729 5728 5728 5727
5726 5727 5729 5730 5732 5733 5734 5735 5735 5735 5735 5735 5735 5735 5735 5734 5734 5733 5733 5732 5731 5730 5729 5728 5727 5726 5725 5725 5724 5724 5724 5723 5723 5722 5722 5721 5721 5720
5717 5718 5720 5721 5723 5724 5725 5726 5727 5727 5727 5727 5727 5727 5727 5727 5727 5726 5726 5725 5724 5723 5722 5721 5720 5719 5718 5718 5718 5717 5717 5716 5716 5715 5714 5714 5713 5713
5708 5710 5711 5713 5714 5716 5717 5718 5719 5719 5719 5720 5720 5720 5719 5719 5719 5719 5718 5718 5717 5716 5715 5714 5713 5712 5712 5711 5711 5710 5710 5709 5709 5708 5707 5707 5706 5706
5699 5701 5702 5704 5706 5707 5709 5710 5711 5711 5711 5712 5712 5712 5712 5712 5711 5711 5710 5710 5709 5709 5708 5707 5706 5706 5705 5705 5704 5703 5702 5702 5701 5701 5700 5700 5699 5699
5691 5692 5694 5696 5697 5699 5700 5701 5702 5703 5704 5704 5704 5704 5704 5704 5703 5703 5703 5702 5702 5701 5700 5700 5699 5699 5698 5698 5697 5696 5695 5695 5694 5693 5693 5692 5692 5691
5683 5684 5686 5687 5689 5691 5692 5693 5694 5695 5696 5696 5696 5696 5696 5696 5696 5695 5695 5695 5694 5694 5693 5693 5692 5692 5691 5691 5690 5689 5688 5688 5687 5687 5686 5685 5684 5684
5674 5676 5677 5679 5680 5682 5683 5685 5686 5687 5688 5688 5689 5689 5689 5689 5688 5688 5688 5687 5687 5686 5686 5686 5685 5684 5684 5683 5683 5682 5681 5681 5680 5680 5679 5678 5678 5677
5667 5668 5669 5671 5672 5673 5675 5676 5678 5679 5680 5680 5681 5681 5681 5681 5681 5681 5680 5680 5679 5679 5679 5678 5677 5677 5677 5676 5675 5675 5675 5674 5673 5673 5672 5671 5670 5669
5659 5660 5661 5663 5664 5665 5667 5668 5669 5670 5671 5672 5672 5673 5673 5673 5673 5673 5672 5672 5672 5672 5671 5670 5670 5670 5669 5669 5668 5668 5667 5667 5666 5666 5665 5663 5662 5662